Погода в Ветлуге

Погода в Ветлуге : погода сейчас, прогноз погоды и архив. Всё, что Вы хотите узнать о погоде в Ветлуге!

Хотите узнать прогноз погоды в Ветлуге? Тогда Вам сюда: Погода в Ветлуге

Поиск расширенной информации на нашем сайте:

Другие новости

Новости СМИ2

Главная страница сайта

Новости сайта

03.07.2017

Напоминаем, что на нашем специализированном сайте Метеоцентр.Азия вы можете получить высокодетализированные автоматические прогнозы погоды по пунктам России, СНГ и мира в авиационном формате (включающие направление и скорость ветра, видимость, явления погоды, количество и форму облачности, нижнюю и верхнюю границу облачности).


Погода в Ветлуге - сегодня

Время (UTC), дата Ветер
(°,м/с) 
Видим.   Явления Облачность Т
(°С)
Тd
(°С)
f(%) Тe
(°С)
Pmin
(гПа)
dP
(гПа)
Po
(мм)
O2
(г/м3)
Тmin Tmax R s Состояние
почвы
21 25.05.18 330 (СЗ) 1-1{03}  20000 м    ясно 
+3.1 -3 64 +4  1031.1  2.1  761  303           
06 26.05.18 290 (З) 2-4{05}  20000 м    ясно 
+12.1 -3.8 33 +12  1034  0.4  763  295           
09 26.05.18 270 (З) 3-7{07}  20000 м    ясно 
+15.5 -2.7 28 +16  1032.6  -1.2  762  291           
21 28.05.18 290 (З) 1-1{02}  20000 м    ясно 
+2 -0.2 85 +3  1028  0.3  758  303           
21 09.06.18 290 (З) 2-5{05}  20000 м    ясно 
+4.8 +1.5 79 +4  1009.1  0.5  744  295           
15 14.06.18 350 (С) 4-8{09}  20000 м  {ливн. осадки}  10/8 600 м кучево-дожд., средняя, верхняя 
[Cb calv|Ac As|Ci fib]
+11.2 +4.3 62 +10  1016  1.7  750  290    +14.4     
21 14.06.18 300 (СЗ) 1-1{04}  20000 м    ясно 
+2.9 +0.8 86 +4  1018.3  0.9  751  299           
18 15.06.18 тихо () -0{07}  20000 м    ясно 
+11.8 +2.9 54 +12  1018.5  0.3  752  290           
21 15.06.18 280 (З) 1-1{02}  20000 м    ясно 
+6.3 +2.1 74 +7  1019.5  0.7  752  296           
06 16.06.18 350 (С) 4-6{06}  20000 м    ясно 
+16.5 +1.1 35 +17  1020.2  0.1  753  286           
18 16.06.18 тихо () -0{06}  20000 м    ясно 
+15.8 +5.9 52 +16  1018.4  0.1  752  285           
21 16.06.18 300 (СЗ) 1-2{02}  20000 м    ясно 
+9 +5.3 78 +10  1019.1  0.2  752  292           
06 17.06.18 030 (СВ) 2-5{05}  20000 м    ясно 
+21.9 +3.4 30 +22  1018.2  -0.2  752  280           
18 17.06.18 010 (С) 1-1{07}  20000 м    ясно 
+19.5 +8.1 48 +21  1015.3  0.1  750  281           
21 17.06.18 330 (СЗ) 1-1{02}  20000 м    ясно 
+12.8 +8.4 75 +14  1016  0.3  750  287           
06 19.06.18 140 (ЮВ) 1-2{02}  20000 м    ясно 
+25 +14.4 52 +33  1010.6  -0.8  746  273           
06 23.06.18 190 (Ю) 2-3{04}  20000 м    ясно 
+24.5 +14.8 55 +33  1011.5  -0.3  747  273           
21 23.06.18 тихо () -0{02}  20000 м    ясно 
+19 +17 88 +31  1012.5  0.8  748  278           
09 25.06.18 160 (Ю) 2-6{07}  20000 м    8/1 1000 м верхняя 
[Sc|Ci fib]
+31.4   1015.7  -0.1  750             
06 28.06.18 350 (С) 2-4{05}  20000 м    ясно 
+23.4 +11.8 48 +27  1018.9  -0.3  752  277           
21 28.06.18 320 (СЗ) 1-2{02}  20000 м    ясно 
+15.6 +11.8 78 +21  1016.1  -0.2  750  284           
09 16.07.18 тихо () -0{02}  20000 м    5/0 верхняя 
[Ci fib]
+19.5 +18.9 96 +36  1011.9  0.6  747  276  +16.8        мокрая 
06 22.07.18 090 (В) 3-6{06}  20000 м    ясно 
+22.2 +11.4 50 +25  1016.8  -0.1  751  278           
09 22.07.18 090 (В) 20000 м    6/4 600 м средняя 
[Sc|Ac trans]
+23.5 +10.5 44 +25  1016.8  0.1  751  277           
18 22.07.18 080 (В) 1-2{07}  20000 м    ясно 
+17.6 +10.5 63 +21  1017.6  0.8  751  282           
Время (UTC), дата Ветер
(°,м/с) 
Видим.   Явления Облачность Т
(°С)
Тd
(°С)
f(%) Тe
(°С)
Pmin
(гПа)
dP
(гПа)
Po
(мм)
O2
(г/м3)
Тmin Tmax R s Состояние
почвы

Для получения пояснительной информации подведите курсор к названию столбца.

ПОГОДА в Ветлуге - архив

Всё, что Вы хотите узнать о погоде в Ветлуге - удобно и подробно!

Выберите нужную дату (начиная с 1 января 2015* года) и нажмите кнопку "Найти".
Будут отображены архивные сводки погоды по пункту Ветлуга, начиная с указанной даты.


Отображать данные в формате CSV (для использования в таблицах Excel)


Внимание! Наш архив погоды предназначен исключительно для личного некоммерческого использования в познавательных целях. Если Вам необходимы официальные справки о состоянии погоды (для производственных, юридических, коммерческих и т.п. целей), обращайтесь в органы Росгидромета.

*Примечание: данная дата относится к архиву по метеостанциям СССР (Россия, СНГ, Балтия).
Архив по метеостанциям Зарубежной Европы и Азии (кроме Китая) хранится 10 дней, по другим регионам земного шара (Китай, Африка, Америка, Австралия, Океания) - 1 день.

Ветлуга - район местоположения метеостанции


Название, широта, долгота, высота метеостанции:
Ветлуга 57.9°ш. 45.8°д. 136 м над ур. моря [Российская Федерация]

Дополнительная информация

В oтличие oт бoльшинства пoгoдных сайтoв мы публикуем пoдрoбную метеoинфoрмацию в детальнoм прoфессиoнальнoм фoрмате.

Характеристики температуры и влажнoсти вoздуха измеряются на высoте 2 м в тени вдали oт зданий и деревьев.
Скoрoсть ветра измеряется на высoте 10 м (на урoвне рoста челoвека скoрoсть ветра ниже в 1.5-2 раза). Если метеoстанция нахoдится в гoрoде или в лесу, тo скoрoсть ветра занижена на 2-4 м/с пo сравнению с oткрытым местoм. Скoрoсть ветра над акватoриями крупных рек и oзёр, а также на вершинах хoлмoв на 2-5 м/с выше, чем в oбычных услoвиях.
Атмoсфернoе давление в разных тoчках местнoсти мoжет значительнo oтличаться oт давления на метеoстанции, в зависимoсти oт услoвий рельефа (при пoдъёме на 10 м давление пoнижается примернo на 1 мм рт.ст.).